Retour au catalogue

STARLINK-33570

ActifCommunicationsVLEO
NORAD 62776·PAYLOAD·🇺🇸 United States

Lancé Jan 21, 2025 depuis Vandenberg Space Force Base

Loading…

Prochains Passages (prochaines 24 heures)

TLE

FraisSource: CelesTrak SupGP

Époque: Sep 14, 2026, 20:56 UTC

1 62776C 25015U   26257.87270833 -.00018624  00000+0 -55044-3 0  2571
2 62776  53.1564 159.8347 0001354 114.8755 139.9833 15.34388702    13

Suivez STARLINK-33570 en temps réel avec AllMySat

Download on the App Store